This demonstration page uses our WeatherBlox Daily Observations layout. Learn more.

38.89511, -77.03637

Hourly Observations for August 1, 2019

Temp ( °F °C ) Dew Point ( °F °C ) Humidity (%) Winds ( mph kmh ) Pressure ( in mb ) Visibility ( mi km ) Precip ( " mm )
12:52 am 00:52 Mostly Cloudy 74 23.3 68 20 82 82 SW 6 9 30.03 1017 10 16.09344 0 0
1:52 am 01:52 Cloudy 74 23.3 68 20 82 82 WSW 6 9 30.06 1018 10 16.09344 0 0
2:52 am 02:52 Mostly Cloudy 73 22.8 68 20 84 84 SW 5 7 30.03 1017 10 16.09344 0 0
3:52 am 03:52 Mostly Cloudy 72 22.2 68 20 87 87 SSW 6 9 30.03 1017 10 16.09344 0 0
4:52 am 04:52 Partly Cloudy 72 22.2 68 20 87 87 WSW 5 7 30.03 1017 10 16.09344 0 0
5:52 am 05:52 Partly Cloudy 71 21.7 67 19.4 87 87 N 5 7 30.03 1017 10 16.09344 0 0
6:52 am 06:52 Mostly Sunny 72 22.2 68 20 87 87 Calm 30.06 1018 10 16.09344 0 0
7:52 am 07:52 Mostly Sunny 76 24.4 67 19.4 74 74 W 6 9 30.06 1018 10 16.09344 0 0
8:52 am 08:52 Partly Cloudy 79 26.1 67 19.4 67 67 SW 3 6 30.09 1019 10 16.09344 0 0
9:52 am 09:52 Partly Cloudy 83 28.3 68 20 61 61 NNW 10 17 30.09 1019 10 16.09344 0 0
10:52 am 10:52 Partly Cloudy 84 28.9 68 20 59 59 NNE 9 15 30.09 1019 10 16.09344 0 0
11:52 am 11:52 Mostly Sunny 86 30 66 18.9 51 51 NNE 8 13 30.09 1019 10 16.09344 0 0
12:52 pm 12:52 Partly Cloudy 89 31.7 65 18.3 45 45 NE 6 9 30.09 1019 10 16.09344 0 0
1:52 pm 13:52 Partly Cloudy 91 32.8 66 18.9 44 44 ENE 6 9 30.06 1018 10 16.09344 0 0
2:52 pm 14:52 Partly Cloudy 90 32.2 64 17.8 42 42 Calm 30.06 1018 10 16.09344 0 0
3:52 pm 15:52 Partly Cloudy 89 31.7 63 17.2 42 42 Calm 30.03 1017 10 16.09344 0 0
4:52 pm 16:52 Partly Cloudy 88 31.1 67 19.4 50 50 ENE 7 11 30 1016 10 16.09344 0 0
5:52 pm 17:52 Mostly Cloudy 88 31.1 68 20 52 52 E 13 20 30 1016 10 16.09344 0 0
6:52 pm 18:52 Mostly Cloudy 87 30.6 68 20 53 53 E 9 15 30.03 1017 10 16.09344 0 0
7:25 pm 19:25 Mostly Cloudy 81 27.2 67 19.4 62 62 SSE 15 24 30.06 1018 10 16.09344 0 0
7:52 pm 19:52 Mostly Cloudy 78 25.6 66 18.9 67 67 SSE 9 15 30.06 1018 10 16.09344 0 0
8:52 pm 20:52 Cloudy 78 25.6 63 17.2 60 60 Calm 30.06 1018 10 16.09344 0 0
9:52 pm 21:52 Cloudy 78 25.6 63 17.2 60 60 ESE 5 7 30.06 1018 10 16.09344 0 0
10:52 pm 22:52 Cloudy 77 25 66 18.9 69 69 Calm 30.09 1019 10 16.09344 0 0
11:52 pm 23:52 Cloudy 78 25.6 67 19.4 69 69 Calm 30.06 1018 10 16.09344 0 0

Powered by AerisWeather